Location: Boursonne
(49.2024°N, 3.0468°E)
Time: 00:29:23
(UTC+00:00)

SJ 16-02 - Pass Details

Date: 03 March 2021
Orbit: 605 x 617 km, 75.0° (Epoch: 14 April)

Event Time Altitude Azimuth Distance (km) Brightness Sun altitude
Rises 21:12:14 0° 328° (NNW) 2,884 5.7 -34.7°
Reaches altitude 10° 21:14:46 10° 315° (NW) 1,976 4.7 -35.0°
Enters shadow 21:16:32 19° 296° (WNW) 1,472 3.9 -35.2°
